Location: ???? ??????? ????
(31.2176°N, 31.6797°E)
Time: 17:03:49
(UTC+00:00)

Aureole 3 - Pass Details

Date: 29 October 2020
Orbit: 382 x 1231 km, 82.5° (Epoch: 29 November)

Event Time Altitude Azimuth Distance (km) Brightness Sun altitude
Rises 15:44:36 0° 191° (SSW) 2,549 7.0 -8.7°
Reaches altitude 10° 15:46:50 10° 195° (SSW) 1,578 6.0 -9.1°
Maximum altitude 15:50:08 60° 276° (W) 476 3.4 -9.8°
Drops below altitude 10° 15:53:06 10° 358° (N) 1,422 5.4 -10.5°
Sets 15:55:02 0° 2° (N) 2,264 6.3 -10.9°
